Regional Weather Roundup
Issued by NWS

Home | Current Version | Previous Version | Text Only | Print | Product List | Glossary Off
Versions: 1 2 3 4 5 6 7 8 9 10 11 12 13 14 15 16 17 18 19 20 21 22 23 24 25 26 27 28 29 30 31 32 33 34 35 36 37 38 39 40 41 42 43 44 45 46 47 48 49 50

000
ASUS43 KLMK 280402
RWRKY
KENTUCKY REGIONAL WEATHER ROUNDUP
NATIONAL WEATHER SERVICE LOUISVILLE KY
1200 AM EDT TUE MAR 28 2017

NOTE "FAIR" INDICATES FEW OR NO CLOUDS BELOW 12,000 FEET
WITH NO SIGNIFICANT WEATHER AND/OR OBSTRUCTIONS TO VISIBILITY.

KYZ001>023-026-027-061>063-070>075-280500-
WESTERN AND SOUTH CENTRAL KENTUCKY

CITY           SKY/WX    TMP DP  RH WIND       PRES   REMARKS
PADUCAH        PTCLDY    53  52  96 W5        29.88R
HENDERSON      CLOUDY    57  52  82 W8        29.85R
OWENSBORO      MOCLDY    56  54  93 SW6       29.86S
HOPKINSVILLE   MOCLDY    57  57 100 CALM      29.87S
BOWLING GREEN  CLOUDY    58  56  93 CALM      29.87R
GLASGOW        NOT AVBL
$$

KYZ024-025-028>034-038-045-046-053-280500-
NORTH CENTRAL KENTUCKY

CITY           SKY/WX    TMP DP  RH WIND       PRES   REMARKS
LOUISVILLE/SDF CLOUDY    58  54  86 S5        29.85S
LOUISVILLE/LOU CLOUDY    58  55  90 S3        29.85S
FORT KNOX      CLOUDY    55  55 100 SW5       29.84S
$$

KYZ035>037-039>044-047>052-055>060-089>105-280500-
NORTHEAST KENTUCKY

CITY           SKY/WX    TMP DP  RH WIND       PRES   REMARKS
LEXINGTON      CLOUDY    56  53  90 SE6       29.88S
COVINGTON      CLOUDY    57  56  96 S3        29.84F
FRANKFORT      CLOUDY    56  53  90 SE6       29.85F
$$

KYZ054-064>069-076>088-106>120-280500-
SOUTHEAST KENTUCKY

CITY           SKY/WX    TMP DP  RH WIND       PRES   REMARKS
JACKSON        MOCLDY    54  53  97 CALM      29.92F FOG
LONDON         LGT RAIN  57  54  89 SE6       29.93F FOG
SOMERSET       NOT AVBL
MIDDLESBORO    CLOUDY    58  57  99 CALM      29.97F
MONTICELLO     MOCLDY    58  56  93 SE9       29.89F
$$





USA.gov is the U.S. government's official web portal to all federal, state and local government web resources and services.